Temp_Advection
nan nan nan nan nan nan nan nan nan nan nan nan nan nan nan nan nan nan nan nan nan nan nan nan nan nan nan nan nan nan nan nan nan nan nan nan nan nan nan nan nan nan nan nan
nan 0 0 0 0 -0 -0 -0 -0 -0 -0 0 0 -0 -0 0 0 0 -0 -0 -0 -0 -0 -0 -0 0 0 0 0 0 1 1 1 0 0 0 0 0 0 0 0 0 0 nan
nan 0 -0 -0 -0 -0 -0 -0 0 -0 -1 -0 0 -0 0 0 1 0 -0 -0 -0 0 0 -0 -0 0 0 0 0 0 0 1 1 0 0 1 0 0 0 0 0 0 0 nan
nan 0 -0 -0 -0 -0 0 0 0 0 -0 -0 -0 -0 -0 0 0 1 1 0 0 -0 -0 -0 -0 -0 -0 -0 0 0 0 0 1 1 0 0 0 1 0 0 0 1 0 nan
nan -0 -0 -0 -0 0 -0 0 0 0 -0 -0 -0 0 -0 -0 -0 -0 1 0 -0 -0 -0 -0 -0 -0 -0 -0 -0 0 0 0 0 1 1 0 0 0 1 1 1 1 0 nan
nan 0 -0 0 -0 -0 -0 -0 -1 -0 -0 -0 -0 -0 -0 -0 -0 -0 0 0 -0 -0 -0 -0 0 0 0 0 0 -0 -0 -0 -0 0 0 1 1 1 1 1 1 1 1 nan
nan 0 0 -0 -0 -0 -1 -0 -1 -0 -0 -0 -0 -0 -0 -0 -0 -1 0 0 -0 0 -0 0 -0 0 0 0 0 0 -0 -0 -0 -0 -0 -0 0 1 1 1 1 1 1 nan
nan -0 0 -0 -0 0 -0 -0 -0 -0 0 -1 -1 -0 -0 0 1 0 0 0 -0 -0 0 -0 -0 -0 -0 -0 -0 -0 -0 -0 -0 0 0 0 0 -0 0 1 2 2 2 nan
nan -0 -0 0 -0 -0 1 0 -0 0 0 0 -1 -1 -1 -0 -1 -1 -0 -0 -0 0 0 -0 0 0 0 0 0 0 -0 -0 -0 -1 -0 -0 0 -0 1 2 2 2 2 nan
nan -0 -1 -0 -0 0 0 0 -0 0 -0 -0 -0 -0 -0 -1 -1 -1 -0 -1 -1 -0 -0 -1 -1 -1 -0 -0 -0 -0 0 0 -0 -0 -1 -0 -0 0 1 2 2 1 1 nan
nan -0 -1 -0 0 -0 -0 -0 0 0 -0 0 -0 -1 -0 -0 0 -0 -0 -1 -1 -1 -1 -1 -1 -1 -1 -1 -1 -1 -1 -0 -0 -1 -1 -0 0 0 1 2 1 1 1 nan
nan 0 -0 -1 -1 -0 -0 0 -0 -0 0 0 -0 -2 -1 0 -1 -0 -0 -1 -1 -1 -1 -1 -1 -1 -0 -1 -1 -1 -1 -1 -0 -1 -0 0 0 1 1 1 0 1 1 nan
nan 0 0 -1 -0 -0 -0 -1 -0 1 0 0 -0 -1 -1 -0 0 -1 -1 -1 -1 -1 -1 -1 -1 -0 -0 -0 -0 -1 -1 -0 -0 -0 0 1 1 1 0 0 0 0 0 nan
nan 0 -0 -0 -0 -0 -0 -1 0 1 0 -1 -1 -1 -1 -0 -0 -1 -1 -1 -1 -1 -1 -1 -1 -1 -1 -1 -1 -0 -1 -0 -1 0 1 1 0 0 0 0 0 0 0 nan
nan 0 -0 -0 -0 -0 -0 -0 0 0 1 0 -1 -1 -1 -0 -0 -1 -1 -1 -1 -1 -1 -1 -1 -2 -1 -0 -1 -0 -0 -1 -0 0 0 0 0 0 0 0 1 0 -0 nan
nan 0 0 -0 -1 -0 -0 -0 -0 -0 -0 -0 -0 -1 -0 -1 -1 -1 -1 -1 -1 -1 -1 -0 0 -0 -1 -0 -0 -0 -0 -0 -0 -0 0 1 1 0 1 1 0 -0 -0 nan
nan 0 0 -1 -0 -0 -0 -1 -0 -0 0 1 0 -0 -1 -1 -1 -0 0 -0 -0 -0 -0 -0 -0 -0 -0 -0 -0 0 -0 -0 -0 1 0 -0 1 0 -0 0 -0 -0 0 nan
nan -0 0 -0 -0 -0 -1 -0 1 0 0 0 -0 -0 0 -0 -1 -1 -0 0 0 1 0 -0 0 0 0 0 0 -0 0 0 0 0 -0 -0 -0 0 -0 0 0 0 0 nan
nan -0 -0 -0 -0 -1 -0 -0 0 0 -0 -0 -0 -0 -0 0 -1 -0 -0 0 0 0 1 0 -0 0 0 0 0 -0 -0 -0 -0 -0 0 -0 0 0 0 0 0 0 0 nan
nan -0 0 0 -0 -1 -1 -0 -0 -1 1 -0 -0 -0 -0 0 0 -0 -0 -0 1 0 0 0 -0 0 1 -0 -0 -0 -0 -0 -0 -0 0 0 0 0 0 0 0 0 0 nan
nan -0 -0 -0 -0 -1 -1 -1 0 -0 -0 0 0 0 1 0 0 -0 -0 -0 0 0 0 0 0 -0 -0 0 -0 -0 -0 -0 0 -0 -0 -0 0 0 0 0 0 0 0 nan
nan -0 0 -0 -0 -1 0 -0 -0 -0 -0 0 1 0 -0 -0 -0 -0 -1 -0 0 0 0 0 -0 -0 0 0 -0 -0 -0 -0 -0 0 -0 -0 -0 0 0 -0 -0 0 -0 nan
nan -0 0 -0 -1 -1 -1 0 1 1 0 -0 0 -0 -0 -0 -1 -1 -1 -0 -0 -0 0 -0 -0 -0 0 -0 -0 -0 0 0 -0 -0 -0 -0 -0 0 0 0 -0 -0 -0 nan
nan 1 0 -0 -0 -0 -0 -0 -0 -0 0 0 -0 0 0 0 -0 -1 -0 -1 -1 -1 -1 -0 -0 -0 -0 0 -0 0 0 0 -0 -0 -0 -0 -0 -0 -0 0 -0 -0 -0 nan
nan 0 0 -1 -1 -1 -0 -0 1 0 -0 -0 -0 -0 0 -0 -0 -1 -1 -1 -0 -1 -0 -0 -0 -0 -0 -0 -0 0 0 -0 0 -0 0 0 0 -0 -0 -0 -0 -0 -0 nan
nan nan nan nan nan nan nan nan nan nan nan nan nan nan nan nan nan nan nan nan nan nan nan nan nan nan nan nan nan nan nan nan nan nan nan nan nan nan nan nan nan nan nan nan
Wind_Speed
3 6 3 3 3 2 5 6 5 5 10 11 6 10 12 9 18 20 20 20 17 15 15 11 16 14 12 13 14 16 18 20 21 20 21 22 23 25 21 23 24 21 21 19
7 4 3 5 8 7 8 5 6 4 11 7 11 16 10 9 10 18 18 15 14 12 13 12 6 2 6 10 15 17 18 20 20 23 25 24 23 21 23 22 24 23 25 24
3 3 5 6 6 8 6 5 6 7 10 10 5 9 7 4 17 15 11 10 8 7 4 2 2 5 10 12 14 17 17 18 22 24 25 27 22 23 26 25 25 28 30 29
2 4 5 7 3 5 4 8 9 11 7 3 5 4 5 6 7 8 13 17 15 12 13 9 5 2 4 8 10 13 16 19 20 23 27 29 31 31 31 31 31 28 28 29
3 2 4 4 4 5 7 6 13 14 8 2 7 3 5 5 4 6 13 17 14 11 6 4 3 5 6 8 8 11 15 19 25 24 27 30 31 33 36 33 26 27 25 23
5 4 3 1 7 6 7 7 11 5 3 3 6 4 5 3 3 5 11 14 13 6 3 0 3 10 16 13 14 16 17 21 24 26 29 31 34 37 36 37 35 32 28 21
5 5 3 3 5 7 11 7 4 6 4 4 12 6 8 8 5 10 8 6 3 2 1 4 11 7 7 7 8 9 13 18 23 27 31 34 37 38 39 41 39 37 31 24
5 5 6 7 3 4 6 3 4 2 2 5 8 3 4 10 23 17 7 4 13 15 9 10 5 2 2 3 6 13 16 21 28 33 35 27 27 35 40 41 36 33 28 25
6 4 8 4 1 3 7 4 3 1 3 3 4 7 15 3 13 19 16 15 12 9 6 9 6 5 5 10 13 16 22 26 27 35 35 36 36 37 29 30 27 25 23 22
4 5 5 7 4 5 4 1 5 3 2 4 4 5 6 10 16 18 8 20 14 11 6 10 12 16 15 16 20 27 29 31 41 28 33 35 36 25 23 26 23 21 19 19
5 3 7 7 1 3 2 3 2 2 1 3 3 5 5 17 17 10 28 19 16 13 16 18 23 15 14 18 21 26 33 42 27 29 31 32 29 24 22 20 17 16 20 26
4 2 3 10 16 10 5 6 5 2 5 4 4 10 15 11 14 30 25 15 17 18 20 20 16 18 23 30 36 38 44 32 26 28 29 26 22 20 16 15 16 17 17 17
2 3 3 8 6 7 5 14 13 9 1 9 3 8 9 22 21 10 16 21 22 24 20 23 25 29 36 36 41 40 34 26 26 28 27 19 15 13 14 13 10 12 17 18
5 2 5 5 5 6 10 18 20 12 3 8 11 22 17 18 6 13 19 21 21 16 18 23 29 38 38 41 39 31 28 29 28 23 19 16 12 8 9 13 13 11 15 14
7 5 6 8 7 10 16 20 21 16 16 13 24 19 17 8 7 12 17 20 17 16 19 28 34 35 38 36 30 27 28 31 19 15 10 9 10 12 14 16 19 10 15 21
2 5 1 6 12 11 8 21 21 20 15 12 13 18 7 14 22 24 23 23 22 22 31 35 37 35 36 30 26 28 32 27 19 16 19 16 14 16 21 13 15 16 21 25
5 3 2 12 3 5 7 13 4 6 12 11 7 4 19 18 24 25 26 17 16 25 32 37 35 36 29 26 27 32 30 34 32 24 21 21 24 15 11 10 11 21 23 27
4 3 2 4 2 4 8 14 21 17 8 8 8 14 21 22 24 25 26 17 26 37 33 34 34 28 27 31 32 39 33 22 20 16 8 6 5 4 6 15 19 23 26 28
8 5 1 2 3 9 9 9 3 11 16 4 10 21 26 23 32 18 13 18 27 30 29 29 26 25 35 31 38 24 10 11 12 9 3 2 6 12 14 18 20 23 28 31
7 7 3 2 4 6 7 4 16 14 11 11 23 15 22 25 13 12 23 33 31 30 26 23 23 33 29 31 18 10 12 12 7 2 6 6 10 16 16 18 22 27 27 26
3 2 2 3 5 7 7 9 9 4 9 22 18 19 23 11 17 26 32 24 29 20 23 21 30 27 27 15 11 8 10 7 6 3 8 16 15 16 18 23 25 24 26 26
5 3 4 2 5 8 5 12 5 14 26 35 32 21 26 25 24 26 26 30 22 21 24 26 25 23 13 11 7 7 5 6 11 15 14 15 17 19 21 21 22 24 23 23
3 7 4 9 6 11 29 25 33 39 37 37 29 19 21 17 26 29 32 22 19 21 22 26 19 12 11 8 7 7 8 11 12 15 17 17 19 19 19 22 22 20 21 25
2 12 6 6 5 25 31 41 38 36 34 23 18 20 16 20 20 23 22 27 29 31 31 15 8 9 9 8 9 9 10 12 16 18 19 19 19 19 20 18 17 19 21 26
7 7 8 14 24 32 27 28 33 24 20 16 10 14 15 21 21 23 31 34 31 25 14 9 7 9 10 6 10 12 15 18 18 21 21 19 18 17 15 17 18 19 21 18
15 15 8 15 28 23 33 25 28 13 10 11 15 16 18 18 25 32 27 24 17 14 12 10 14 8 8 7 9 10 13 17 21 20 20 16 15 15 21 19 18 15 17 19
Wind_Direction
267 62 86 358 294 271 343 304 313 318 345 350 293 276 272 302 74 71 77 80 77 63 45 64 207 206 219 237 250 268 270 272 274 269 264 265 257 265 265 250 261 260 257 258
8 100 27 310 311 44 349 329 347 316 331 316 301 298 239 130 104 99 102 95 86 76 65 75 102 215 267 287 299 303 295 285 280 273 277 277 278 270 271 268 260 251 252 258
21 79 354 328 17 31 352 38 348 311 317 308 12 329 97 84 117 111 114 117 126 133 143 120 359 318 300 290 291 294 297 295 279 273 275 274 264 260 261 258 250 249 256 258
150 152 27 333 87 44 329 355 329 305 335 305 79 280 256 146 158 148 155 144 143 134 120 103 90 46 307 312 307 299 299 295 293 274 271 267 274 271 263 265 263 262 264 266
277 57 15 16 353 345 247 305 286 280 255 297 322 79 290 123 173 179 157 134 120 110 94 81 27 8 357 358 344 322 308 312 315 300 277 275 273 277 280 268 260 251 260 266
239 125 78 16 306 287 309 336 309 324 129 58 332 53 296 323 148 129 112 121 122 129 62 359 308 317 315 314 323 320 312 305 304 298 292 287 278 275 271 268 256 252 259 247
316 131 106 28 347 351 12 13 354 8 10 215 14 343 241 318 85 105 98 95 337 303 8 340 336 314 285 298 290 303 319 318 312 304 297 289 280 277 271 266 260 249 246 241
1 344 19 350 74 333 303 56 116 308 318 290 325 259 284 4 80 46 348 349 54 13 343 354 335 3 32 358 340 330 312 305 305 307 303 292 288 285 278 268 251 246 242 233
3 302 349 72 39 97 322 39 259 153 291 60 264 302 328 92 340 11 62 360 346 312 309 328 308 303 327 328 329 321 313 310 310 311 298 295 295 301 278 249 238 236 226 218
319 313 316 331 304 237 164 314 22 3 338 280 282 305 244 322 340 331 333 331 352 331 40 31 29 358 339 328 315 307 305 310 315 306 300 300 302 292 265 242 230 216 215 230
33 87 303 353 93 343 47 349 3 353 151 231 292 256 306 312 306 314 327 355 42 58 46 20 359 2 344 331 319 318 318 324 317 310 301 297 290 285 256 239 229 227 254 285
348 190 283 277 279 264 74 8 356 135 270 240 237 269 268 275 311 310 316 33 39 25 4 8 9 351 344 334 325 322 322 322 318 310 299 288 281 266 254 253 254 252 262 291
14 338 348 334 2 15 17 338 331 323 200 254 245 270 332 308 295 349 44 33 11 1 1 345 340 337 331 328 327 322 325 316 313 308 292 277 269 269 274 261 250 273 280 293
131 207 171 212 247 315 316 312 305 299 253 281 250 290 299 301 337 43 26 10 356 349 335 325 327 332 328 323 325 324 321 310 320 294 277 277 284 286 233 236 258 273 295 299
158 216 223 260 290 293 298 293 285 285 281 285 290 288 291 337 59 27 11 355 355 352 347 341 334 328 328 327 329 318 314 319 318 286 260 236 217 214 225 253 269 283 303 296
277 260 206 271 277 281 297 278 283 283 276 269 283 300 312 19 15 3 355 353 353 342 333 328 324 323 324 326 317 309 315 313 309 284 268 245 243 267 280 277 278 306 293 296
241 200 120 281 353 19 305 268 263 237 308 289 284 340 15 353 344 342 333 329 328 331 318 320 321 321 323 315 304 312 313 312 306 273 267 272 280 302 328 290 288 288 293 295
223 122 131 279 42 199 239 316 304 294 278 317 26 360 345 341 337 323 320 317 320 321 319 317 323 323 315 310 318 318 316 313 305 299 336 12 7 305 252 280 293 294 296 298
177 125 212 266 219 269 284 268 297 321 310 10 0 338 330 329 312 315 320 312 318 309 310 313 318 308 312 313 323 326 7 12 11 6 37 98 270 278 287 298 297 296 298 303
76 89 129 255 264 289 228 342 24 353 283 3 348 336 322 314 306 313 328 323 318 310 311 315 306 311 306 323 323 327 335 332 340 2 277 278 301 304 305 299 299 302 305 305
357 351 190 277 271 266 260 283 309 30 299 311 305 308 300 294 292 305 312 317 319 307 316 304 311 314 320 314 313 318 338 340 311 318 314 313 315 307 300 300 303 308 307 314
182 173 220 232 236 268 345 349 17 298 314 314 309 310 313 309 319 315 325 325 315 308 308 307 312 324 310 306 343 343 321 335 323 316 324 321 315 311 308 311 311 313 318 318
264 199 211 194 225 289 310 305 307 304 304 305 312 332 344 342 326 330 330 329 323 310 307 315 325 311 302 356 306 290 296 299 308 321 320 319 316 317 319 317 320 329 326 319
242 268 254 313 256 279 301 301 297 300 306 319 324 329 338 321 334 327 328 334 323 315 318 332 328 341 345 352 294 296 299 304 319 326 326 321 320 318 316 325 335 329 323 325
196 213 250 262 278 284 285 293 307 316 322 331 353 348 339 321 325 329 329 325 320 322 348 338 338 346 343 325 311 308 306 314 319 319 318 320 318 321 330 333 327 324 327 341
206 250 245 267 276 283 286 314 323 332 351 355 354 339 322 329 330 328 329 325 322 333 327 352 22 8 337 322 301 299 305 306 312 319 324 323 326 339 336 328 334 348 344 343
Height
1523 1533 1539 1531 1528 1527 1530 1531 1531 1524 1518 1519 1516 1514 1506 1502 1500 1501 1505 1508 1509 1511 1511 1510 1515 1518 1519 1520 1521 1522 1523 1523 1522 1521 1520 1520 1519 1519 1518 1517 1515 1514 1514 1515
1530 1538 1529 1527 1525 1527 1530 1531 1534 1523 1519 1519 1514 1507 1495 1497 1500 1500 1503 1505 1507 1510 1512 1515 1518 1520 1521 1521 1521 1521 1520 1519 1518 1518 1516 1516 1515 1513 1512 1512 1511 1510 1510 1509
1535 1532 1527 1527 1529 1532 1534 1535 1535 1535 1522 1512 1510 1511 1500 1499 1499 1501 1504 1507 1509 1510 1512 1514 1516 1518 1518 1518 1518 1517 1516 1515 1514 1513 1512 1511 1509 1509 1508 1507 1507 1506 1505 1505
1531 1529 1530 1530 1532 1533 1540 1527 1528 1529 1534 1539 1515 1543 1507 1504 1503 1502 1504 1507 1508 1511 1511 1513 1514 1515 1515 1514 1514 1514 1513 1512 1510 1509 1507 1507 1505 1503 1502 1502 1502 1501 1500 1500
1536 1532 1533 1534 1535 1531 1535 1525 1526 1523 1529 1528 1522 1533 1514 1502 1506 1506 1505 1507 1509 1511 1512 1511 1513 1512 1511 1511 1511 1511 1510 1509 1508 1507 1504 1502 1500 1499 1498 1497 1497 1496 1495 1494
1531 1529 1532 1535 1531 1529 1527 1527 1521 1516 1523 1552 1532 1533 1529 1510 1503 1504 1508 1508 1508 1508 1509 1510 1510 1510 1509 1509 1507 1507 1507 1506 1505 1502 1500 1497 1493 1491 1490 1489 1488 1489 1487 1487
1533 1534 1533 1533 1535 1530 1532 1539 1562 1558 1561 1559 1527 1534 1523 1508 1501 1508 1511 1508 1505 1506 1507 1507 1506 1507 1507 1506 1504 1504 1503 1502 1500 1497 1494 1491 1486 1483 1481 1480 1479 1479 1479 1479
1554 1560 1540 1536 1540 1543 1542 1540 1574 1574 1575 1566 1534 1538 1520 1506 1508 1511 1508 1508 1509 1507 1507 1507 1506 1505 1503 1501 1500 1500 1499 1497 1494 1490 1486 1482 1480 1477 1473 1471 1470 1471 1471 1471
1563 1551 1539 1539 1538 1542 1545 1556 1543 1557 1558 1574 1551 1527 1510 1506 1506 1510 1509 1510 1508 1506 1504 1505 1504 1501 1500 1497 1496 1494 1493 1490 1487 1483 1478 1474 1471 1467 1464 1463 1463 1463 1464 1463
1557 1565 1545 1542 1539 1537 1542 1543 1563 1571 1581 1569 1548 1540 1534 1518 1512 1508 1509 1507 1504 1503 1503 1503 1503 1501 1497 1494 1492 1490 1487 1483 1478 1473 1469 1465 1462 1460 1460 1459 1457 1457 1458 1458
1558 1566 1560 1548 1543 1549 1549 1552 1550 1551 1562 1569 1567 1549 1517 1516 1513 1512 1506 1506 1502 1503 1503 1501 1500 1498 1495 1493 1490 1486 1481 1475 1470 1467 1463 1459 1457 1456 1455 1454 1454 1455 1456 1455
1563 1565 1578 1556 1541 1542 1542 1550 1550 1569 1568 1567 1563 1536 1516 1515 1512 1508 1505 1507 1505 1504 1503 1500 1498 1495 1492 1488 1484 1478 1473 1467 1464 1460 1455 1453 1452 1450 1450 1451 1451 1450 1452 1453
1563 1574 1584 1565 1549 1546 1552 1549 1551 1555 1561 1554 1569 1538 1514 1514 1509 1508 1507 1504 1504 1503 1500 1498 1495 1491 1487 1483 1479 1472 1467 1463 1459 1454 1450 1448 1447 1447 1447 1447 1448 1449 1448 1450
1561 1566 1573 1581 1568 1562 1563 1556 1550 1554 1571 1549 1547 1526 1517 1512 1508 1506 1504 1503 1502 1498 1496 1494 1491 1489 1483 1478 1473 1467 1463 1459 1455 1451 1447 1444 1444 1444 1445 1445 1445 1445 1446 1446
1560 1570 1565 1561 1560 1559 1556 1551 1542 1546 1543 1547 1524 1527 1514 1511 1510 1508 1506 1502 1499 1497 1494 1492 1487 1481 1476 1472 1468 1465 1459 1455 1452 1449 1446 1442 1441 1441 1441 1441 1442 1442 1443 1443
1559 1568 1562 1564 1555 1556 1557 1541 1536 1537 1534 1527 1519 1515 1508 1510 1509 1505 1503 1499 1496 1495 1492 1487 1482 1476 1472 1467 1463 1460 1456 1451 1451 1446 1443 1440 1438 1438 1437 1438 1439 1439 1440 1437
1561 1565 1573 1556 1557 1561 1567 1535 1532 1528 1524 1521 1525 1518 1513 1510 1508 1507 1503 1499 1495 1491 1488 1482 1477 1472 1467 1463 1459 1455 1450 1445 1441 1437 1435 1435 1434 1434 1435 1435 1436 1436 1434 1431
1559 1566 1570 1559 1568 1558 1535 1523 1520 1521 1517 1516 1513 1511 1510 1508 1503 1503 1497 1492 1490 1486 1482 1476 1471 1467 1463 1459 1454 1449 1443 1439 1436 1433 1432 1431 1432 1433 1435 1435 1433 1431 1428 1425
1546 1562 1564 1561 1559 1541 1531 1521 1520 1520 1515 1515 1512 1508 1506 1506 1501 1495 1489 1488 1485 1479 1476 1472 1467 1462 1458 1454 1449 1444 1440 1438 1435 1433 1433 1432 1432 1432 1432 1430 1428 1426 1423 1419
1550 1554 1562 1566 1564 1551 1525 1518 1517 1515 1516 1511 1511 1509 1505 1502 1497 1488 1484 1482 1476 1474 1470 1465 1461 1457 1451 1447 1444 1442 1440 1437 1435 1434 1433 1432 1431 1430 1428 1426 1424 1420 1417 1413
1562 1562 1563 1568 1555 1539 1516 1514 1515 1527 1517 1509 1507 1502 1500 1496 1493 1485 1478 1471 1469 1466 1463 1460 1456 1451 1446 1442 1440 1439 1438 1436 1435 1433 1433 1432 1429 1427 1424 1422 1419 1415 1411 1407
1557 1563 1557 1559 1545 1543 1512 1511 1526 1517 1506 1505 1497 1494 1492 1489 1484 1480 1475 1469 1464 1461 1456 1453 1448 1445 1442 1440 1439 1438 1437 1436 1435 1433 1430 1428 1425 1423 1420 1416 1413 1409 1405 1401
1548 1544 1545 1542 1528 1508 1510 1515 1510 1509 1503 1496 1494 1490 1486 1484 1482 1477 1471 1466 1461 1457 1451 1446 1441 1440 1438 1438 1438 1437 1435 1434 1432 1430 1427 1425 1422 1418 1415 1412 1408 1404 1400 1396
1535 1533 1532 1527 1511 1505 1508 1506 1504 1499 1496 1492 1488 1485 1484 1480 1477 1471 1469 1463 1459 1455 1448 1443 1439 1438 1437 1437 1436 1435 1433 1431 1430 1427 1424 1421 1418 1415 1411 1407 1404 1400 1396 1392
1529 1528 1521 1513 1510 1505 1502 1501 1497 1493 1492 1486 1484 1482 1479 1477 1474 1468 1462 1458 1455 1451 1446 1443 1439 1438 1437 1436 1435 1433 1431 1428 1427 1424 1421 1417 1414 1410 1407 1404 1401 1398 1394 1390
1516 1514 1517 1506 1501 1502 1494 1494 1492 1489 1486 1486 1481 1479 1477 1472 1471 1463 1458 1455 1452 1449 1446 1440 1438 1439 1438 1436 1434 1432 1429 1427 1424 1420 1417 1413 1410 1407 1404 1400 1397 1395 1391 1388